FOX-1D (AO-92) (43137 NORAD) Tracking and Keplerian Element Data

This shows tracking and keplerian element data for the satellite.

Feedback or suggestion? Click here.




ElementValue
Catalog43137
NameFOX-1D (AO-92)
Epoch Orbit10191
Epoch Day316.87844845
Epoch Year2019
RAAN24.2446
Inclination97.4729
Eccentricity0.0010894
Argument of Perigee99.0979
Mean Anonmoly261.1491
Mean Motion15.23707037
Decay Rate1.088E-05
L11 43137U 18004AC 19316.87844845 .00001088 00000-0 48243-4 0 9991
L22 43137 97.4729 24.2446 0010894 99.0979 261.1491 15.23707037101916

Live tracking and technical data element details for FOX-1D (AO-92) (NORAD 43137). FOX-1D (AO-92) can be tracked NOW for your location showing map with azimuth and elevation plus other details from your city location.

Track the satellite on the map from your city or location and see movement details for azimuth, elevation, latitude, longitude, range, height, and movement on the map or in text.







IsCatalogInMostPopularTable: catalog: 43137, numindb: 1374
Update: records affected: 1



GetName: 43137 FOX-1D (AO-92)

Hit Count: updated at: Wed, 13 Nov 2019 18:32:12 GMT